Weather History for Rifle, CO

Change the Weather History Date:

Friday, April 20, 2012

  Actual Average Record
Temperature  
Mean Temperature 51 °F 49 °F  
Max Temperature 68 °F 64 °F 90 °F (1936)
Min Temperature 34 °F 34 °F 17 °F (1955)
Degree Days  
Heating Degree Days 14 16  
Month to date heating degree days 325 369  
Since 1 July heating degree days 5750 6153  
Cooling Degree Days 0 0  
Month to date cooling degree days 0 0  
Year to date cooling degree days 0 0  
Moisture  
Dew Point 34 °F    
Average Humidity 59    
Maximum Humidity 89    
Minimum Humidity 28    
Precipitation  
Precipitation 0.00 in 0.03 in 1.01 in (1985)
Month to date precipitation 0.45 0.77  
Year to date precipitation 2.37 3.54  
Sea Level Pressure  
Sea Level Pressure 30.14 in    
Wind  
Wind Speed 2 mph (East)    
Max Wind Speed 10 mph    
Max Gust Speed 14 mph    
Visibility 10 miles    
Events      
T = Trace of Precipitation, MM = Missing Value Source: NWS Daily Summary

Daily Weather History Graph

Daily Weather History Graph

Search for Another Location

Airport:

Trip Planner

Search our weather history database for the weather conditions in past years. The results will help you decide how hot, cold, wet, or windy it might be!

Date:

Astronomy

Apr. 20, 2012 Rise Set
Actual Time 6:25 AM MDT 7:54 PM MDT
Civil Twilight 5:57 AM MDT 8:22 PM MDT
Nautical Twilight 5:23 AM MDT 8:56 PM MDT
Astronomical Twilight 4:47 AM MDT 9:32 PM MDT
Moon 5:50 AM MDT 7:41 PM MDT
Length of Visible Light 14h 25m
Length of Day
13h 28m
Waning Crescent, 0% of the Moon is Illuminated
Apr 20
Waning Crescent
Apr 21
New
Apr 29
First Quarter
May 5
Full
May 12
Last Quarter

Hourly Weather History & Observations

Time (MDT) Temp. Windchill Dew Point Humidity Pressure Visibility Wind Dir Wind Speed Gust Speed Precip Events Conditions
12:53 AM 43.0 °F 41.3 °F 37.9 °F 82% 30.13 in 10.0 mi East 3.5 mph - N/A   Overcast
1:53 AM 44.1 °F - 37.0 °F 76% 30.13 in 10.0 mi Calm Calm - N/A   Overcast
2:53 AM 43.0 °F - 37.9 °F 82% 30.15 in 10.0 mi Calm Calm - N/A   Overcast
3:53 AM 41.0 °F 39.0 °F 37.0 °F 86% 30.18 in 10.0 mi East 3.5 mph - N/A   Clear
4:53 AM 37.9 °F - 34.0 °F 86% 30.19 in 10.0 mi Calm Calm - N/A   Clear
5:53 AM 35.1 °F 31.0 °F 32.0 °F 89% 30.21 in 10.0 mi SE 4.6 mph - N/A   Clear
6:53 AM 35.1 °F 32.2 °F 30.9 °F 85% 30.23 in 10.0 mi ESE 3.5 mph - N/A   Clear
7:53 AM 41.0 °F - 35.1 °F 79% 30.23 in 10.0 mi Calm Calm - N/A   Clear
8:53 AM 46.9 °F - 37.9 °F 71% 30.22 in 10.0 mi NE 4.6 mph - N/A   Clear
9:53 AM 52.0 °F - 36.0 °F 54% 30.21 in 10.0 mi Variable 3.5 mph - N/A   Clear
10:53 AM 55.9 °F - 32.0 °F 40% 30.18 in 10.0 mi East 5.8 mph - N/A   Clear
11:53 AM 59.0 °F - 33.1 °F 38% 30.17 in 10.0 mi Calm Calm - N/A   Overcast
12:53 PM 60.1 °F - 33.1 °F 36% 30.14 in 10.0 mi NE 5.8 mph - N/A   Clear
1:53 PM 61.0 °F - 32.0 °F 34% 30.12 in 10.0 mi Calm Calm - N/A   Clear
2:53 PM 64.0 °F - 32.0 °F 30% 30.09 in 10.0 mi East 4.6 mph - N/A   Clear
3:53 PM 64.9 °F - 32.0 °F 29% 30.07 in 10.0 mi Calm Calm - N/A   Mostly Cloudy
4:53 PM 66.9 °F - 32.0 °F 27% 30.06 in 10.0 mi NNE 4.6 mph - N/A   Mostly Cloudy
5:53 PM 64.9 °F - 32.0 °F 29% 30.08 in 10.0 mi ENE 3.5 mph - N/A   Overcast
6:53 PM 64.0 °F - 33.1 °F 31% 30.06 in 10.0 mi Calm Calm - N/A   Partly Cloudy
8:53 PM 52.0 °F - 37.0 °F 57% 30.09 in 10.0 mi South 3.5 mph - N/A   Clear
9:53 PM 50.0 °F - 36.0 °F 59% 30.11 in 10.0 mi ENE 5.8 mph - N/A   Clear
10:53 PM 46.9 °F - 35.1 °F 63% 30.11 in 10.0 mi SSE 3.5 mph - N/A   Clear
11:53 PM 48.0 °F - 35.1 °F 61% 30.12 in 10.0 mi Calm Calm - N/A   Clear